CDT,Max TemperatureF,Mean TemperatureF,Min TemperatureF,Max Dew PointF,MeanDew PointF,Min DewpointF,Max Humidity, Mean Humidity, Min Humidity, Max Sea Level PressureIn, Mean Sea Level PressureIn, Min Sea Level PressureIn, Max VisibilityMiles, Mean VisibilityMiles, Min VisibilityMiles, Max Wind SpeedMPH, Mean Wind SpeedMPH, Max Gust SpeedMPH,PrecipitationIn, CloudCover, Events, WindDirDegrees
2011-10-1,56,42,27,38,31,25,100,76,30,30.37,30.30,30.24,10,9,0,6,2,,0.00,0,Fog,20
2011-10-2,69,48,27,48,36,27,100,71,29,30.25,30.21,30.15,10,9,1,9,2,,0.00,0,,269
2011-10-3,72,53,34,51,43,35,100,74,31,30.28,30.23,30.20,10,8,1,6,1,,0.00,0,,124
2011-10-4,75,56,37,52,44,38,100,71,30,30.27,30.22,30.16,10,8,0,10,2,,0.00,0,Fog,223
2011-10-5,78,58,37,51,43,38,100,64,27,30.22,30.19,30.15,10,8,0,10,2,,0.00,0,Fog,157
2011-10-6,76,58,41,48,45,40,100,64,26,30.24,30.20,30.17,10,9,0,12,3,17,0.00,0,Fog,162
2011-10-7,76,64,52,51,48,43,84,57,31,30.20,30.13,30.05,10,10,10,20,7,28,0.00,0,,180
2011-10-8,79,71,63,50,48,45,59,46,34,30.16,30.13,30.07,10,10,10,18,10,26,0.00,2,,206
2011-10-9,79,68,57,50,48,40,67,49,28,30.30,30.25,30.20,10,10,5,9,6,,0.00,1,,216
2011-10-10,75,58,40,51,46,40,100,70,34,30.25,30.13,30.01,10,10,3,15,3,22,0.00,0,,156
2011-10-11,64,58,53,60,53,48,100,84,70,30.01,29.96,29.91,10,8,0,8,4,,0.02,5,Fog-Rain,169
2011-10-12,66,61,56,60,57,53,100,93,63,29.91,29.83,29.71,10,7,1,10,4,,0.00,7,Rain,150
2011-10-13,55,52,49,54,52,50,100,99,90,29.68,29.55,29.47,10,7,3,9,3,,0.78,7,Rain,126
2011-10-14,47,44,41,47,43,37,100,93,73,29.49,29.44,29.41,10,9,3,24,12,36,0.01,8,Rain,294
2011-10-15,50,44,38,33,30,28,71,60,46,29.67,29.59,29.48,10,10,10,28,18,38,0.01,6,,295
2011-10-16,51,44,37,34,28,20,80,55,30,29.69,29.63,29.56,10,10,10,28,12,39,0.00,4,,276
2011-10-17,49,44,39,36,29,26,76,56,48,29.70,29.60,29.56,10,10,10,20,15,32,0.00,6,Rain,291
2011-10-18,46,41,36,37,34,32,100,80,59,29.95,29.84,29.74,10,10,2,15,8,23,0.00,7,Rain,336
2011-10-19,44,38,33,38,35,32,100,88,64,30.02,29.98,29.94,10,10,7,18,8,25,0.01,7,Rain,16
2011-10-20,39,37,35,37,35,32,100,91,78,29.88,29.80,29.75,10,9,5,22,15,33,0.02,8,Rain-Snow,2
2011-10-21,51,43,35,33,31,25,84,70,37,29.99,29.94,29.86,10,10,10,9,5,,0.00,5,,310
2011-10-22,51,39,27,39,33,27,100,82,50,30.03,30.00,29.94,10,10,2,10,2,,0.00,2,,338
2011-10-23,54,39,24,46,36,25,100,89,56,29.97,29.82,29.71,10,8,0,14,3,21,0.13,4,Fog-Rain,217
2011-10-24,82,42,32,40,34,25,100,81,35,30.06,29.93,29.80,10,10,10,15,7,21,0.00,3,,284
2011-10-25,40,36,32,38,34,32,100,90,73,30.08,30.02,29.95,10,9,2,12,4,16,0.15,8,Rain-Snow,69
2011-10-26,45,36,27,37,33,28,100,91,63,30.03,30.00,29.97,10,9,0,14,4,18,0.06,7,Fog-Rain,346
2011-10-27,42,31,20,35,27,21,100,86,57,30.06,30.00,29.97,10,9,0,5,0,,0.00,4,Fog,34
2011-10-28,46,34,22,38,29,23,100,87,42,30.06,30.01,29.95,10,7,0,12,2,22,0.05,6,Fog-Rain,224
2011-10-29,41,33,25,36,29,25,100,91,58,30.03,29.99,29.94,10,7,0,7,1,,0.00,6,Fog,296
2011-10-30,42,32,23,40,30,24,100,86,60,30.02,29.94,29.84,10,10,1,13,4,23,0.03,5,Rain,135
2011-10-31,42,40,37,41,39,36,100,96,83,29.99,29.92,29.85,10,6,0,9,3,,0.00,8,Fog,289